Location: Cerda�ola
(41.4919°N, 2.1403°E)
Time: 01:34:12
(UTC+00:00)

STARLINK-1091 - Pass Details

Date: 29 March 2020
Orbit: 548 x 551 km, 53.0° (Epoch: 27 May)

Event Time Altitude Azimuth Distance (km) Brightness Sun altitude
Rises 19:57:41 0° 307° (NW) 2,729 8.6 -19.5°
Reaches altitude 10° 19:59:56 10° 308° (NW) 1,831 7.4 -19.9°
Maximum altitude 20:04:06 89° 224° (SW) 556 3.5 -20.6°
Enters shadow 20:04:43 64° 132° (SE) 612 3.5 -20.7°
